Theta_e
290 290 290 288 288 288 286 287 283 286 286 290 292 293 294 296 296 296 297 299 299 299 300 301 302 303 303 302 302 301 299 297 294 293 293 291 289 288 287 286 286 285 285 285
286 289 289 286 288 288 288 288 288 287 287 294 294 295 294 295 295 295 297 298 298 298 299 300 302 301 300 298 297 296 294 292 291 290 289 289 287 287 287 285 284 283 283 283
281 288 286 283 287 288 288 289 288 284 290 293 292 293 292 294 295 296 296 296 296 297 299 302 301 300 296 295 295 292 291 290 289 289 288 287 287 286 285 284 284 282 282 282
282 284 276 288 293 291 289 290 291 291 291 292 293 294 295 295 293 295 297 297 297 298 301 300 299 297 295 293 291 289 289 289 289 288 287 286 285 284 284 284 283 284 283 282
280 280 284 288 291 289 287 287 292 290 291 292 293 294 293 297 297 295 294 296 299 300 301 299 296 295 291 289 288 288 287 287 287 287 286 285 284 284 284 284 283 283 283 283
286 278 275 287 292 295 293 282 292 292 290 289 290 283 289 296 297 297 297 297 297 300 298 295 293 291 288 287 286 286 286 286 286 286 285 284 285 285 286 285 284 284 283 282
283 281 284 292 293 294 281 284 292 291 290 288 285 287 291 293 294 297 296 297 299 296 293 292 290 288 286 285 285 285 286 285 285 285 285 285 285 285 285 285 285 283 282 282
285 282 279 295 292 285 290 293 291 290 289 288 288 289 290 290 291 295 295 298 295 292 290 289 288 287 285 284 285 285 285 284 284 284 285 285 284 284 283 283 282 281 281 280
287 286 295 296 294 295 293 290 289 288 289 287 287 287 288 288 290 294 296 293 291 288 287 287 287 286 284 284 285 284 284 283 283 282 282 281 279 279 280 281 280 279 278 277
289 291 292 294 294 293 291 289 288 288 287 288 287 288 287 290 289 294 292 290 288 286 284 283 285 284 284 284 284 283 282 281 280 279 279 280 279 277 276 276 276 276 277 275
289 292 292 292 292 290 289 288 288 290 288 287 289 289 290 290 292 290 288 287 286 285 283 283 284 284 284 285 285 284 283 283 282 281 279 277 277 277 276 276 275 274 274 275
286 291 289 289 290 290 287 287 288 289 288 289 290 290 290 289 289 287 285 285 284 283 282 282 283 283 284 285 285 283 282 282 282 282 282 282 279 277 278 278 278 277 277 276
291 292 289 290 289 289 287 288 288 289 291 289 289 287 286 285 285 284 284 283 281 281 281 281 281 281 282 283 283 282 281 281 281 280 280 279 279 278 277 277 279 278 277 277
292 289 285 287 284 287 288 289 288 287 286 285 285 285 284 283 283 282 281 281 281 280 280 280 280 280 282 283 282 281 280 280 279 279 278 278 278 278 278 276 275 275 276 276
288 288 287 287 286 286 287 287 285 283 283 282 283 282 282 280 279 279 280 280 280 279 279 279 279 279 281 281 280 279 279 278 278 278 278 277 277 277 276 276 275 274 274 273
285 286 285 283 284 284 284 284 282 281 281 281 281 280 280 280 279 279 279 280 278 277 278 278 279 280 281 280 278 278 278 278 278 277 277 276 276 275 275 275 274 274 273 271
280 280 280 281 282 281 281 282 282 281 281 280 279 280 278 278 278 277 278 279 279 278 279 279 279 280 280 279 278 277 277 277 276 276 275 275 275 274 274 274 273 273 273 273
282 282 282 283 282 281 281 281 281 280 279 279 279 278 276 276 275 275 276 277 276 276 278 278 279 278 278 278 278 277 277 276 276 275 275 275 274 274 273 273 273 272 272 273
281 280 281 281 281 281 280 279 279 279 280 279 278 277 276 276 276 276 277 276 275 275 276 277 278 278 277 279 278 277 276 276 275 275 275 274 274 274 273 272 272 272 271 271
280 281 281 280 281 281 279 280 279 278 279 279 278 277 276 275 276 276 276 276 277 277 278 278 278 277 277 278 278 277 276 276 275 274 274 273 273 272 272 271 271 271 270 270
280 280 280 280 279 280 280 281 280 279 278 278 276 276 276 277 278 277 276 274 276 277 277 277 277 276 277 277 276 276 275 274 274 273 273 272 271 271 270 270 270 270 269 269
281 280 280 279 279 279 280 280 279 278 277 277 276 276 276 276 276 276 277 275 276 276 276 276 276 275 276 275 276 275 274 274 273 273 272 272 271 270 269 269 269 269 268 268
282 281 281 281 280 279 280 279 278 277 276 276 277 278 278 278 278 276 273 275 275 274 275 275 274 275 275 276 276 275 274 273 272 272 271 271 270 270 269 268 268 268 267 267
284 283 282 283 282 280 279 279 280 279 277 278 277 278 278 276 276 276 275 273 273 274 274 274 275 275 275 275 274 274 274 273 272 272 271 269 270 269 269 268 267 267 267 266
286 285 284 283 282 282 281 280 279 279 279 279 279 279 279 279 277 275 274 273 273 273 273 273 274 274 274 274 273 271 271 271 272 271 271 270 269 268 268 268 267 267 266 266
285 285 286 286 285 283 282 281 280 280 280 279 280 280 279 278 276 276 275 274 274 274 274 275 275 274 274 273 272 272 272 272 271 271 270 270 269 268 268 267 267 266 266 265
287 286 286 285 285 284 283 283 282 281 281 281 279 279 278 278 277 276 275 276 274 274 274 274 275 274 274 273 272 272 270 269 266 270 270 270 269 269 267 268 267 266 265 264
Wind_Speed
14 18 20 21 21 20 18 18 18 22 26 21 20 21 22 19 18 17 12 11 10 11 11 11 8 12 14 14 12 10 10 10 11 11 12 13 14 13 15 16 15 15 16 17
17 19 16 18 22 21 15 15 17 21 25 20 21 22 21 18 19 20 8 6 9 14 11 10 14 13 15 13 11 10 10 11 11 11 11 11 11 12 13 15 15 16 15 17
6 13 18 10 9 15 18 16 18 20 22 23 23 26 28 25 18 11 6 7 10 11 9 16 15 14 14 11 10 10 11 10 10 10 10 11 12 11 14 13 13 16 14 15
9 12 4 11 19 11 20 19 22 23 21 23 24 23 24 24 27 27 23 19 18 14 15 12 13 12 12 11 10 10 10 10 10 10 11 12 12 13 13 11 13 12 12 15
3 9 16 14 12 19 19 25 17 23 25 25 25 26 21 18 7 12 13 23 23 9 13 14 12 13 14 12 10 10 12 11 11 11 11 12 13 11 10 8 8 11 11 14
2 7 5 9 21 20 21 21 26 27 25 25 25 18 17 22 21 16 15 14 26 8 14 13 12 14 14 11 10 10 11 11 12 12 12 11 9 7 7 8 11 8 10 13
9 8 9 12 22 20 14 19 27 24 24 25 23 17 25 23 21 24 13 20 9 16 14 13 13 13 13 10 10 11 12 13 12 11 10 9 8 7 8 9 8 11 13 13
6 8 10 22 21 15 16 20 23 27 25 26 26 26 23 22 19 20 15 8 16 15 15 13 13 12 11 11 10 11 12 12 11 11 10 9 11 11 11 10 11 11 11 10
5 7 18 14 17 17 20 22 24 26 26 25 26 25 21 17 14 18 12 11 15 16 15 13 13 12 11 11 10 10 10 10 12 12 12 13 13 13 10 11 10 10 9 10
10 4 14 17 18 21 21 21 23 23 23 20 20 18 16 13 12 11 11 13 14 16 15 15 13 13 11 9 7 8 10 12 11 12 12 11 9 9 9 9 9 9 9 9
12 14 17 13 20 20 20 21 22 21 16 16 18 18 13 11 10 14 12 13 13 14 14 14 12 11 8 5 5 7 8 9 8 7 8 9 9 7 7 8 10 8 8 8
3 9 8 14 17 16 19 19 19 20 16 14 14 12 9 12 13 12 11 14 14 15 15 13 11 9 6 5 8 8 9 8 8 8 8 7 6 6 11 11 17 18 19 12
4 7 9 11 13 15 15 17 18 17 16 15 12 13 17 15 15 15 15 16 15 14 13 12 11 11 11 12 11 11 10 10 8 9 8 8 7 7 7 3 10 20 21 20
11 8 5 8 8 14 15 15 14 13 14 12 13 14 14 15 14 15 16 15 14 13 12 11 11 12 9 8 9 10 10 13 8 7 7 6 7 7 7 7 7 7 15 19
10 7 4 7 9 10 11 11 11 12 11 12 12 13 14 15 16 15 14 13 13 13 12 11 12 12 11 11 12 11 8 8 7 7 7 8 8 9 8 8 8 9 9 13
7 5 8 6 7 9 9 10 10 10 9 11 13 14 15 15 15 14 13 11 12 11 10 9 10 9 9 9 10 9 9 12 10 8 8 9 9 8 9 9 9 9 9 12
4 4 5 6 6 7 8 8 9 9 10 9 11 12 13 14 15 13 12 11 12 11 10 9 9 8 9 9 9 7 7 8 10 9 9 9 8 10 9 9 9 9 8 9
4 4 3 5 6 7 7 8 9 9 10 10 10 10 12 12 13 11 11 11 11 11 11 9 7 8 9 9 9 8 8 8 9 9 8 9 9 9 9 9 9 9 9 10
6 6 5 8 8 7 8 8 8 8 9 8 10 11 11 10 11 10 7 7 10 11 8 8 10 11 11 10 9 8 9 9 9 8 9 10 9 8 8 9 9 10 10 10
8 7 8 8 7 8 8 8 8 9 8 9 10 10 10 9 10 10 9 11 10 8 8 8 9 10 11 11 11 9 9 9 9 9 8 8 8 8 9 10 10 9 10 10
9 8 7 7 8 7 7 6 8 9 8 8 10 10 9 6 5 7 9 8 10 9 10 11 9 8 8 9 9 8 9 9 9 8 8 8 8 8 9 9 10 10 10 10
9 8 8 8 8 8 7 8 9 8 8 8 8 8 9 10 9 9 8 8 6 8 7 7 8 10 8 9 8 9 9 9 7 7 7 7 8 8 9 9 10 9 9 10
9 9 9 9 9 9 9 9 7 7 7 5 6 6 7 6 6 6 7 8 7 7 8 7 7 8 8 8 7 7 8 7 7 7 7 7 8 8 8 8 8 8 9 10
11 11 10 9 10 10 10 10 10 8 5 5 4 4 7 6 6 7 8 9 9 8 7 6 7 9 8 6 7 7 7 6 6 7 8 8 7 7 7 7 8 8 8 9
10 10 11 12 11 8 10 10 10 10 9 9 8 7 9 6 4 6 6 6 7 8 6 7 8 8 6 6 6 6 5 5 6 7 7 7 6 6 7 7 7 8 8 9
11 8 8 10 7 8 8 8 7 7 7 6 6 6 6 6 7 6 6 7 7 7 5 4 5 5 5 5 5 5 6 6 6 6 6 6 5 5 6 6 7 7 8 8
9 8 7 7 6 7 7 7 7 7 7 7 7 7 7 6 7 7 6 6 5 5 5 5 4 4 4 4 5 5 6 5 5 5 5 5 5 4 4 6 6 7 7 8
Wind_Direction
294 296 299 293 291 294 293 292 289 301 294 305 318 327 322 314 301 320 334 15 348 325 347 336 18 19 35 23 4 5 21 31 40 43 51 54 56 45 51 52 48 42 43 40
294 285 287 316 300 288 285 305 304 307 301 311 316 302 292 314 319 317 18 360 336 340 330 359 29 26 34 25 22 32 36 37 37 49 55 54 55 49 57 55 50 49 39 46
277 334 317 282 11 329 313 321 316 306 319 331 344 359 347 330 340 359 8 336 337 333 341 40 34 39 44 23 20 35 41 39 39 39 48 46 45 44 46 54 55 53 43 45
296 325 255 345 325 338 326 327 328 319 344 342 340 339 334 9 12 357 358 358 347 328 59 41 33 43 59 34 34 48 54 48 40 40 46 51 52 51 48 43 41 46 43 44
288 306 293 278 24 346 342 320 332 348 332 324 323 318 301 302 4 330 339 332 302 29 61 53 46 50 57 54 50 51 56 52 48 48 50 50 49 48 48 44 61 58 40 53
282 297 292 327 327 345 329 299 3 341 331 327 329 307 302 320 311 298 307 305 293 65 63 57 57 65 69 63 61 57 56 54 49 47 46 45 40 36 44 42 48 56 59 54
239 245 264 274 357 344 317 327 332 338 333 326 312 301 307 310 319 307 302 299 71 74 68 60 65 74 74 68 61 61 62 62 60 58 53 48 44 40 44 48 49 53 45 38
279 284 280 358 353 355 320 334 335 330 325 319 313 304 303 304 305 301 291 298 77 73 66 67 75 81 78 69 65 66 66 61 52 46 37 36 42 47 41 40 44 39 40 37
277 276 320 343 356 351 344 336 335 324 322 317 308 303 298 299 296 292 1 76 72 80 81 73 73 76 77 72 73 70 69 64 64 59 55 45 37 34 27 29 33 41 34 25
308 289 310 346 346 343 343 341 326 318 312 312 317 325 317 299 296 55 71 73 81 82 83 79 75 76 78 79 76 76 75 77 68 59 54 55 60 46 40 28 32 27 24 31
277 288 345 333 333 342 341 333 320 323 328 326 336 329 335 329 80 81 73 73 80 83 81 80 78 77 73 69 69 75 74 82 86 93 92 79 63 57 61 60 58 42 28 19
315 357 321 312 331 343 341 327 328 332 333 330 350 342 347 65 67 70 84 88 82 79 77 72 68 63 61 50 55 69 67 54 46 48 42 55 96 90 74 75 67 57 46 29
38 1 331 310 342 352 335 339 358 347 1 13 47 66 72 74 69 83 80 77 74 74 73 70 67 62 54 49 49 50 59 54 47 45 44 41 42 36 46 113 75 54 35 26
62 16 345 3 331 335 349 355 18 21 34 40 54 61 74 79 81 76 74 75 76 76 76 75 71 64 56 68 73 71 63 57 54 44 43 41 37 33 35 30 23 28 31 18
27 3 324 13 348 352 360 7 29 32 37 52 61 73 75 79 77 75 76 77 77 73 69 67 67 62 55 51 54 56 57 57 53 49 45 40 39 37 29 26 25 25 21 13
8 359 26 3 355 9 14 29 47 49 49 59 69 65 73 75 73 69 66 68 75 69 62 55 65 74 66 65 63 58 49 46 49 47 43 41 36 36 32 28 23 20 29 12
51 42 13 8 17 28 36 43 60 65 76 73 77 80 81 81 81 79 78 75 75 74 68 54 47 43 55 60 61 60 64 61 54 50 40 41 35 33 28 25 25 20 19 18
86 81 352 35 44 62 64 66 71 72 72 73 76 79 79 80 83 79 76 79 74 67 55 43 52 54 60 60 59 59 59 57 53 51 46 40 41 35 26 22 23 16 12 10
93 90 62 66 70 83 87 84 78 80 86 86 85 83 88 90 93 96 102 93 84 80 71 72 69 65 58 57 67 65 62 58 53 43 43 39 36 32 31 25 22 19 9 9
108 96 90 83 73 89 93 89 91 84 82 94 93 83 79 78 80 77 74 73 72 79 88 87 78 72 66 59 60 58 56 52 50 53 39 44 33 29 24 24 22 19 13 8
114 108 106 104 101 95 98 105 106 99 97 101 106 108 110 118 116 103 90 85 75 68 61 57 62 61 60 66 63 59 56 56 52 49 39 36 33 34 22 19 19 18 11 5
132 132 129 129 120 109 105 106 102 105 100 94 92 99 100 94 79 71 72 88 77 67 73 68 58 52 63 65 63 60 57 53 50 49 44 38 34 30 28 16 15 11 9 3
143 146 145 135 133 129 124 121 118 126 131 140 155 159 131 127 126 116 104 91 89 77 85 77 64 63 64 68 70 70 66 62 63 54 44 39 32 30 26 16 8 7 6 3
157 150 153 146 138 143 142 147 145 123 100 105 81 69 103 94 81 73 76 73 74 77 81 78 70 69 70 69 61 54 56 61 59 53 47 39 37 25 22 13 9 7 4 4
156 150 153 161 173 164 152 150 151 157 156 139 137 134 121 122 114 113 109 113 110 95 88 72 72 75 79 81 86 90 79 52 47 49 43 46 30 26 14 13 12 9 2 5
160 168 175 184 164 155 156 165 161 161 149 137 122 103 94 100 116 126 115 117 121 127 118 107 90 82 80 77 72 64 59 58 59 49 45 32 40 26 9 13 11 8 4 2
177 173 176 173 161 164 171 180 163 160 157 148 141 137 137 136 126 130 135 119 108 120 123 117 107 104 111 113 110 110 102 83 45 44 39 32 24 19 17 9 13 9 4 1